COSMOS 2491 DEB, 57561

Orbit data source: Space-Track

COSMOS 2491 DEB, 57561 is space debris in LEO originally from a launch on Wed, 25 Dec 2013 UTC launched from the Plesetsk Missile And Space Complex (PKMTR). Debris objects in space refer to the collection of defunct objects orbiting the Earth. Examples of debris include non-operational satellites, rocket bodies, and fragments generated from explosions, collisions, or faulty payload assembly.

Loading next visibility...
Identifier
57561, 2013-076AY
Orbit
LEO
Country
Flag of CISCIS
Related business
Manufacturer
TsNIIKhM
Mission
Spacecraft
Bus & Motor
Unknown
Mass
Unknown
Launch date (UTC)
2013-12-25 (13 years ago)
Launch vehicle
Unknown
Launch site
Plesetsk Missile And Space Complex (PKMTR)
Object type
Payload
Rocket body
Debris
Shape & HBR
Unknown shape, 0.1 m
Radar Cross Section
Small (<0.1 m²)

Expand to show TLE details & history
Last TLE update: 3 months ago

TLE from 3 months ago
0 COSMOS 2491 DEB
1 57561U 13076AY  26171.57625942  .00002272  00000-0  10754-1 0  9999
2 57561  82.7495 116.0949 0071062 176.9891 183.1649 12.73511281144774
Epoch: 2026-06-20T13:49Z
TLE epoch observation values (Epoch: 2026-06-20T13:49:48.813Z)
Latitude
-0.00006°
Longitude
-0.1474°
Altitude
1,425.39 km
Speed
7.123 km/s
True Right ascension
07h 44m 22s
True Declination
0° 00' 00"
Sunlit
Object was in daylight at epoch
Visualization orbit readout
Latitude
Unknown
Longitude
Unknown
Altitude
Unknown
Speed
Unknown
Apparent Right ascension
Unknown
Apparent Declination
Unknown
Sunlit
N/A
Visualization observer readout
Local Sidereal Time
22:29:25
Azimuth
Unknown
Elevation
Unknown
Doppler factor
Unknown
Orbital elements
Apogee altitude
1,419.992 km
Perigee altitude
1,309.944 km
Semi-major axis
7,743.105 km
Eccentricity
0.00711
Inclination
82.7495°
RAAN
116.0949°
Arg. of periapsis
176.9891°
True anomaly
183.12034°
Mean anomaly
183.1649°
Eccentric anomaly
183.14258°
Mean motion
3.18545 °/min
Orbital period
113.01 mins
BSTAR
0.010754
Loading maneuver chart data...
Computing Atmospheric mass density...
Loading historical data...
Loading historical data...
Loading historical data...
Loading historical data...
Loading historical data...
Loading historical data...
Loading historical data...

Documentation

Showing up to 5 results
|